Kezdőlap
METAR-TAF:

METAR-TAF

Repülőterek :

Marshall, Missouri, Amerikai Egyesült Államok

földrajzi szélesség: 39-05-44N, földrajzi hosszúság: 093-12-10W, magasság: 237 m

Jelenlegi meteorológiai megfigyelések

A jelentés 14 perccel ezelõtt készült, 18:15 UTC
Észak-északnyugati szél 14 kt
Hőmérséklet 12°C
Páratartalom 94%
Légköri nyomás 1013 hPa
Látótávolság: 16.1 km
Szórványos felhőzet 900 lábon
Borult 2500 lábon
enyhe esõ

METAR: KMHL 181815Z AUTO 34014KT 10SM -RA SCT009 OVC025 12/11 A2992 RMK AO2 LTG DSNT N NE AND SW

Idő: 13:29 (18:29 UTC)


TAF: hiányzik

Meteorológiai megfigyelések és előrejelzések több, mint 4000 repülőtéren (METAR és TAF jelentéseket).

A térképen piros és sárga pontok jelzik az elérhető meteorológiai állomásokat.

Mozgassa az egeret a pont fölött, hogy megjelenjen az állomás neve.

Azután kattintson az időjárási megfigyelések és előrejelzések megtekintéséhez.

A térkép megváltoztatása: kattintson a fekete keresztel jelölt zöld gombra ráközelítéshez, a vonallal jelölt zöld gombra távolításhoz, vagy a zöld nyilakra a szomszédos térképek eléréséhez.


METAR-TAF: